International Skating Union - Official Site

Essent ISU World Cup Salt Lake City
December 11-13, 2009

Draw | Lap Times | Index | World Cup

Referee: Dan  IMMERFALL  (USA)
Starter: Bruce  LANSER  (USA)
StartTime: EndTime: Air Temp: Ice Temp: Humidity:
14:50 15:40 18.9 ℃ -11.2 ℃ 24.2
Result Team Pursuit Men
Rankings as of Dec 13 2009 3:44PM
Rank: No.: Team: Nation: Time: Behind: Points:
Total 13
1 14 Norway (107) Håvard BØKKO (109) Henrik CHRISTIANSEN (111) Mikael FLYGIND-LARSEN NOR NOR 3:39.550.5 - 17.59 - (17.5)
1.0 - 30.79 - (13.1)
1.5 - 43.85 - (13.0)
2.0 - 57.12 - (13.2)
2.5 - 1:10.60 - (13.4)
3.0 - 1:23.93 - (13.3)
3.5 - 1:37.33 - (13.3)
4.0 - 1:50.79 - (13.4)
4.5 - 2:04.09 - (13.2)
5.0 - 2:17.40 - (13.3)
5.5 - 2:31.14 - (13.7)
6.0 - 2:44.79 - (13.6)
6.5 - 2:58.50 - (13.7)
7.0 - 3:12.20 - (13.6)
7.5 - 3:25.90 - (13.7)
8.0 - 3:39.55 - (13.6)
100
2 9 Italy (54) Matteo ANESI (57) Enrico FABRIS (59) Luca STEFANI ITA ITA 3:39.720.5 - 17.74 - (17.7)
1.0 - 30.99 - (13.2)
1.5 - 44.16 - (13.1)
2.0 - 57.80 - (13.6)
2.5 - 1:11.20 - (13.4)
3.0 - 1:24.72 - (13.5)
3.5 - 1:38.13 - (13.4)
4.0 - 1:51.68 - (13.5)
4.5 - 2:05.25 - (13.5)
5.0 - 2:18.78 - (13.5)
5.5 - 2:32.41 - (13.6)
6.0 - 2:45.99 - (13.5)
6.5 - 2:59.69 - (13.6)
7.0 - 3:13.03 - (13.3)
7.5 - 3:26.36 - (13.3)
8.0 - 3:39.72 - (13.3)
0.17 80
3 3 Canada (11) Mathieu GIROUX (15) Lucas MAKOWSKY (10) Steven ELM CAN CAN 3:40.340.5 - 17.31 - (17.3)
1.0 - 30.14 - (12.8)
1.5 - 42.67 - (12.5)
2.0 - 55.27 - (12.6)
2.5 - 1:08.19 - (12.9)
3.0 - 1:21.29 - (13.1)
3.5 - 1:34.71 - (13.4)
4.0 - 1:48.37 - (13.6)
4.5 - 2:02.32 - (13.9)
5.0 - 2:15.89 - (13.5)
5.5 - 2:29.70 - (13.8)
6.0 - 2:43.48 - (13.7)
6.5 - 2:57.49 - (14.0)
7.0 - 3:11.81 - (14.3)
7.5 - 3:26.05 - (14.2)
8.0 - 3:40.34 - (14.2)
0.79 70
4 13 Netherlands (95) Bob de VRIES (105) Carl VERHEIJEN (106) Erben WENNEMARS NED NED 3:40.490.5 - 18.16 - (18.1)
1.0 - 31.14 - (12.9)
1.5 - 44.07 - (12.9)
2.0 - 57.00 - (12.9)
2.5 - 1:10.10 - (13.0)
3.0 - 1:23.45 - (13.3)
3.5 - 1:36.70 - (13.2)
4.0 - 1:50.13 - (13.4)
4.5 - 2:03.66 - (13.5)
5.0 - 2:17.24 - (13.5)
5.5 - 2:30.74 - (13.5)
6.0 - 2:44.62 - (13.8)
6.5 - 2:58.14 - (13.5)
7.0 - 3:12.35 - (14.2)
7.5 - 3:26.40 - (14.0)
8.0 - 3:40.49 - (14.0)
0.94 60
5 10 Japan (60) Shigeyuki DEJIMA (62) Hiroki HIRAKO (69) Teruhiro SUGIMORI JPN JPN 3:40.650.5 - 17.57 - (17.5)
1.0 - 30.91 - (13.3)
1.5 - 44.22 - (13.3)
2.0 - 57.33 - (13.1)
2.5 - 1:10.69 - (13.3)
3.0 - 1:23.89 - (13.2)
3.5 - 1:37.18 - (13.2)
4.0 - 1:50.51 - (13.3)
4.5 - 2:04.10 - (13.5)
5.0 - 2:17.73 - (13.6)
5.5 - 2:31.47 - (13.7)
6.0 - 2:44.89 - (13.4)
6.5 - 2:58.33 - (13.4)
7.0 - 3:12.24 - (13.9)
7.5 - 3:26.39 - (14.1)
8.0 - 3:40.65 - (14.2)
1.10 50
6 12 Korea (79) Kwun-Won CHOI (85) Seung-Hoon LEE (81) Jong-Woo LEE KOR KOR 3:41.500.5 - 17.79 - (17.7)
1.0 - 31.06 - (13.2)
1.5 - 44.32 - (13.2)
2.0 - 57.56 - (13.2)
2.5 - 1:11.04 - (13.4)
3.0 - 1:24.32 - (13.2)
3.5 - 1:37.62 - (13.3)
4.0 - 1:50.79 - (13.1)
4.5 - 2:03.89 - (13.0)
5.0 - 2:17.05 - (13.1)
5.5 - 2:30.30 - (13.2)
6.0 - 2:43.72 - (13.4)
6.5 - 2:57.45 - (13.7)
7.0 - 3:11.68 - (14.2)
7.5 - 3:26.47 - (14.7)
8.0 - 3:41.50 - (15.0)
1.95 45
7 20 USA (151) Brian HANSEN (153) Jonathan KUCK (154) Trevor MARSICANO USA USA 3:41.940.5 - 17.59 - (17.5)
1.0 - 30.61 - (13.0)
1.5 - 43.78 - (13.1)
2.0 - 57.08 - (13.2)
2.5 - 1:10.23 - (13.1)
3.0 - 1:23.36 - (13.1)
3.5 - 1:36.75 - (13.3)
4.0 - 1:50.03 - (13.2)
4.5 - 2:03.53 - (13.5)
5.0 - 2:17.12 - (13.5)
5.5 - 2:30.99 - (13.8)
6.0 - 2:45.15 - (14.1)
6.5 - 2:59.38 - (14.2)
7.0 - 3:13.47 - (14.0)
7.5 - 3:27.66 - (14.1)
8.0 - 3:41.94 - (14.2)
2.39 40
8 18 Sweden (142) Joel ERIKSSON (143) Daniel FRIBERG (144) Johan RÖJLER SWE SWE 3:42.430.5 - 17.71 - (17.7)
1.0 - 30.90 - (13.1)
1.5 - 43.85 - (12.9)
2.0 - 56.96 - (13.1)
2.5 - 1:10.35 - (13.3)
3.0 - 1:23.98 - (13.6)
3.5 - 1:37.84 - (13.8)
4.0 - 1:51.30 - (13.4)
4.5 - 2:04.63 - (13.3)
5.0 - 2:18.17 - (13.5)
5.5 - 2:31.99 - (13.8)
6.0 - 2:45.97 - (13.9)
6.5 - 2:59.99 - (14.0)
7.0 - 3:14.11 - (14.1)
7.5 - 3:28.33 - (14.2)
8.0 - 3:42.43 - (14.0)
2.88 36
9 17 Russia (132) Yevgeny LALENKOV (136) Ivan SKOBREV (138) Aleksey YESIN RUS RUS 3:42.880.5 - 17.90 - (17.8)
1.0 - 31.19 - (13.2)
1.5 - 44.10 - (12.9)
2.0 - 57.35 - (13.2)
2.5 - 1:10.70 - (13.3)
3.0 - 1:24.45 - (13.7)
3.5 - 1:38.09 - (13.6)
4.0 - 1:51.56 - (13.4)
4.5 - 2:05.00 - (13.4)
5.0 - 2:18.58 - (13.5)
5.5 - 2:32.20 - (13.6)
6.0 - 2:46.14 - (13.9)
6.5 - 2:59.71 - (13.5)
7.0 - 3:13.53 - (13.8)
7.5 - 3:27.97 - (14.4)
8.0 - 3:42.88 - (14.9)
3.33 32
10 8 Germany (44) Patrick BECKERT (45) Jörg DALLMANN (48) Robert LEHMANN GER GER 3:45.780.5 - 17.90 - (17.8)
1.0 - 30.89 - (12.9)
1.5 - 43.99 - (13.1)
2.0 - 56.94 - (12.9)
2.5 - 1:10.09 - (13.1)
3.0 - 1:23.34 - (13.2)
3.5 - 1:36.82 - (13.4)
4.0 - 1:50.64 - (13.8)
4.5 - 2:04.23 - (13.5)
5.0 - 2:17.84 - (13.6)
5.5 - 2:31.75 - (13.9)
6.0 - 2:46.00 - (14.2)
6.5 - 3:00.18 - (14.1)
7.0 - 3:14.85 - (14.6)
7.5 - 3:30.38 - (15.5)
8.0 - 3:45.78 - (15.3)
6.23 28
11 11 Kazakhstan (70) Dmitry BABENKO (76) Denis KUZIN (78) Aleksandr ZHIGIN KAZ KAZ 3:49.800.5 - 18.17 - (18.1)
1.0 - 31.91 - (13.7)
1.5 - 45.06 - (13.1)
2.0 - 58.48 - (13.4)
2.5 - 1:12.00 - (13.5)
3.0 - 1:25.76 - (13.7)
3.5 - 1:39.61 - (13.8)
4.0 - 1:53.92 - (14.3)
4.5 - 2:07.79 - (13.8)
5.0 - 2:21.29 - (13.4)
5.5 - 2:34.84 - (13.5)
6.0 - 2:48.64 - (13.7)
6.5 - 3:03.06 - (14.4)
7.0 - 3:18.09 - (15.0)
7.5 - 3:33.73 - (15.6)
8.0 - 3:49.80 - (16.0)
10.25 24
12 15 Poland (123) Sebastian DRUSZKIEWICZ (124) Konrad NIEDZWIEDZKI (125) Jan SZYMANSKI POL POL 3:50.680.5 - 17.90 - (17.8)
1.0 - 31.35 - (13.4)
1.5 - 44.34 - (12.9)
2.0 - 57.60 - (13.2)
2.5 - 1:11.04 - (13.4)
3.0 - 1:24.71 - (13.6)
3.5 - 1:38.10 - (13.3)
4.0 - 1:51.63 - (13.5)
4.5 - 2:04.99 - (13.3)
5.0 - 2:18.97 - (13.9)
5.5 - 2:33.34 - (14.3)
6.0 - 2:48.17 - (14.8)
6.5 - 3:03.17 - (15.0)
7.0 - 3:19.29 - (16.1)
7.5 - 3:35.31 - (16.0)
8.0 - 3:50.68 - (15.3)
11.13 21
13 16 Romania (127) Valentin ANGHEL (128) Claudiu GROZEA (129) Marian Cristian ION ROU ROU 3:52.830.5 - 18.39 - (18.3)
1.0 - 32.17 - (13.7)
1.5 - 45.90 - (13.7)
2.0 - 59.69 - (13.7)
2.5 - 1:13.81 - (14.1)
3.0 - 1:27.85 - (14.0)
3.5 - 1:41.78 - (13.9)
4.0 - 1:55.68 - (13.9)
4.5 - 2:10.00 - (14.3)
5.0 - 2:24.31 - (14.3)
5.5 - 2:38.67 - (14.3)
6.0 - 2:53.16 - (14.4)
6.5 - 3:08.03 - (14.8)
7.0 - 3:22.75 - (14.7)
7.5 - 3:37.58 - (14.8)
8.0 - 3:52.83 - (15.2)
13.28 18